This is the latest recevied weather packets stored in our database for station/object KC4JIR. If no packets are shown the sender has not sent any weather packets the latest 10 day(s).
| Time | Temp. | Humidity | Pressure | Rain* | Wind** | Luminosity | Snow |
|---|---|---|---|---|---|---|---|
| 1788129504 | 30° C | 80% | 1015.5 hPa | 0 mm | - | 33 W/m² | - |
| 1788129200 | 29.44° C | 81% | 1015.4 hPa | 0 mm | - | 41 W/m² | - |
| 1788128894 | 29.44° C | 81% | 1015.5 hPa | 0 mm | - | 45 W/m² | - |
| 1788128589 | 30° C | 85% | 1015.8 hPa | 0 mm | - | 45 W/m² | - |
| 1788128284 | 30° C | 81% | 1015.3 hPa | 0 mm | - | 60 W/m² | - |
| 1788127981 | 30° C | 77% | 1015.6 hPa | 0 mm | - | 60 W/m² | - |
| 1788127676 | 30.56° C | 79% | 1015.6 hPa | 0 mm | - | 51 W/m² | - |
| 1788127375 | 31.11° C | 77% | 1015.8 hPa | 0 mm | - | 61 W/m² | - |
| 1788127074 | 31.67° C | 72% | 1015.8 hPa | 0 mm | - | 69 W/m² | - |
| 1788126769 | 32.78° C | 69% | 1015.6 hPa | 0 mm | - | 67 W/m² | - |
| 1788126464 | 32.78° C | 67% | 1015.7 hPa | 0 mm | - | 331 W/m² | - |
| 1788126164 | 33.33° C | 65% | 1015.7 hPa | 0 mm | - | 357 W/m² | - |
| 1788125863 | 32.78° C | 67% | 1015.7 hPa | 0 mm | - | 321 W/m² | - |
| 1788125558 | 32.22° C | 73% | 1015.6 hPa | 0 mm | - | 334 W/m² | - |
| 1788125254 | 31.67° C | 70% | 1015.7 hPa | 0 mm | - | 352 W/m² | - |
| 1788124950 | 31.11° C | 71% | 1015.6 hPa | 0 mm | - | 341 W/m² | - |
| 1788124649 | 32.22° C | 69% | 1015.5 hPa | 0 mm | - | 56 W/m² | - |
| 1788124348 | 33.33° C | 67% | 1015.4 hPa | 0 mm | - | 430 W/m² | - |
| 1788124048 | 33.33° C | 70% | 1015.7 hPa | 0 mm | - | 440 W/m² | - |
| 1788123743 | 32.78° C | 67% | 1015.5 hPa | 0 mm | - | 425 W/m² | - |
| 1788123441 | 32.22° C | 69% | 1015.4 hPa | 0 mm | - | 204 W/m² | - |
| 1788123136 | 33.33° C | 66% | 1015.4 hPa | 0 mm | - | 475 W/m² | - |
| 1788122831 | 33.33° C | 66% | 1015.6 hPa | 0 mm | - | 470 W/m² | - |
| 1788122530 | 32.22° C | 66% | 1015.6 hPa | 0 mm | - | 508 W/m² | - |
| 1788122226 | 33.33° C | 65% | 1015.8 hPa | 0 mm | - | 162 W/m² | - |
* Rain latest hour (hover to see other rain measurements)
** Current wind speed in m/s (hover to see current wind gust speed)